Crosby, ND

1:30 AM CDT on April 28, 2017 (GMT -0500)
Crosby

Weather History for KD50 - March, 2012

Change the Weather History Date:

Tuesday, March 13, 2012

  Actual Average (KISN) Record (KISN)
Temperature  
Mean Temperature 45 °F -  
Max Temperature 62 °F 39 °F 72 °F (2012)
Min Temperature 28 °F 18 °F -26 °F (1897)
Degree Days  
Heating Degree Days 20    
Moisture  
Dew Point 26 °F    
Average Humidity 50    
Maximum Humidity 80    
Minimum Humidity 32    
Precipitation  
Precipitation 0.00 in - - ()
Sea Level Pressure  
Sea Level Pressure 29.58 in    
Wind  
Wind Speed 14 mph (South)    
Max Wind Speed 23 mph    
Max Gust Speed 32 mph    
Visibility 10 miles    
Events      
Averages and records for this station are not official NWS values.
T = Trace of Precipitation, MM = Missing Value Source: NWS Daily Summary

Daily Weather History Graph

Daily Weather History Graph

Search for Another Location

Airport or City:

Trip Planner

Search our weather history database for the weather conditions in past years. The results will help you decide how hot, cold, wet, or windy it might be!

Date:

Astronomy

Mar. 13, 2012 Rise Set
Actual Time 8:09 AM CDT 7:56 PM CDT
Civil Twilight 7:38 AM CDT 8:27 PM CDT
Nautical Twilight 7:01 AM CDT 9:04 PM CDT
Astronomical Twilight 6:23 AM CDT 9:42 PM CDT
Moon 2:03 AM CDT (3/13) 10:50 AM CDT (3/13)
Length of Visible Light 12h 49m
Length of Day
11h 46m
Waning Gibbous, 65% of the Moon is Illuminated
Mar 13
Waning Gibbous
Mar 14
Last Quarter
Mar 22
New
Mar 30
First Quarter
Apr 6
Full

Hourly Weather History & Observations

Time (CDT) Temp. Windchill Dew Point Humidity Pressure Visibility Wind Dir Wind Speed Gust Speed Precip Events Conditions
12:15 AM 32.0 °F 23.6 °F 23.0 °F 69% 29.75 in 10.0 mi SSW 10.4 mph - N/A   Clear
12:35 AM 30.2 °F 22.6 °F 23.0 °F 75% 29.75 in 10.0 mi SSW 8.1 mph - N/A   Clear
12:55 AM 32.0 °F 24.8 °F 23.0 °F 69% 29.75 in 10.0 mi SSW 8.1 mph - N/A   Clear
1:15 AM 32.0 °F 23.6 °F 23.0 °F 69% 29.74 in 10.0 mi SSW 10.4 mph - N/A   Clear
1:35 AM 32.0 °F 24.2 °F 24.8 °F 75% 29.74 in 10.0 mi SSW 9.2 mph - N/A   Clear
1:55 AM 32.0 °F 23.6 °F 24.8 °F 75% 29.74 in 10.0 mi SSW 10.4 mph - N/A   Clear
2:15 AM 32.0 °F 25.6 °F 24.8 °F 75% 29.74 in 10.0 mi South 6.9 mph - N/A   Clear
2:35 AM 32.0 °F 24.2 °F 24.8 °F 75% 29.73 in 10.0 mi South 9.2 mph - N/A   Clear
2:55 AM 32.0 °F 23.6 °F 23.0 °F 69% 29.73 in 10.0 mi South 10.4 mph - N/A   Clear
3:15 AM 30.2 °F 22.6 °F 23.0 °F 75% 29.73 in 10.0 mi South 8.1 mph - N/A   Clear
3:35 AM 28.4 °F 23.3 °F 23.0 °F 80% 29.73 in 10.0 mi South 4.6 mph - N/A   Clear
3:55 AM 28.4 °F - 23.0 °F 80% 29.73 in 10.0 mi Calm Calm - N/A   Clear
4:15 AM 33.8 °F 26.4 °F 19.4 °F 56% 29.72 in 10.0 mi SSE 9.2 mph - N/A   Clear
4:35 AM 35.6 °F 29.9 °F 19.4 °F 52% 29.71 in 10.0 mi South 6.9 mph - N/A   Clear
4:55 AM 37.4 °F 27.8 °F 19.4 °F 48% 29.70 in 10.0 mi South 17.3 mph 21.9 mph N/A   Clear
5:15 AM 39.2 °F 29.8 °F 17.6 °F 42% 29.68 in 10.0 mi South 18.4 mph 27.6 mph N/A   Clear
5:35 AM 39.2 °F 29.0 °F 17.6 °F 42% 29.68 in 10.0 mi South 21.9 mph 28.8 mph N/A   Clear
5:55 AM 37.4 °F 27.5 °F 17.6 °F 45% 29.68 in 10.0 mi South 18.4 mph 29.9 mph N/A   Clear
6:15 AM 37.4 °F 26.9 °F 17.6 °F 45% 29.67 in 10.0 mi SSE 20.7 mph 25.3 mph N/A   Clear
6:35 AM 37.4 °F 27.2 °F 17.6 °F 45% 29.67 in 10.0 mi South 19.6 mph 26.5 mph N/A   Clear
6:55 AM 37.4 °F 27.8 °F 17.6 °F 45% 29.66 in 10.0 mi South 17.3 mph 24.2 mph N/A   Clear
7:15 AM 37.4 °F 27.8 °F 17.6 °F 45% 29.65 in 10.0 mi South 17.3 mph 23.0 mph N/A   Clear
7:55 AM 37.4 °F 27.8 °F 19.4 °F 48% 29.63 in 10.0 mi South 17.3 mph 23.0 mph N/A   Clear
8:15 AM 37.4 °F 28.2 °F 19.4 °F 48% 29.63 in 10.0 mi South 16.1 mph 23.0 mph N/A   Clear
8:35 AM 37.4 °F 27.5 °F 19.4 °F 48% 29.63 in 10.0 mi South 18.4 mph 24.2 mph N/A   Clear
8:55 AM 39.2 °F 29.6 °F 19.4 °F 45% 29.62 in 10.0 mi South 19.6 mph 25.3 mph N/A   Clear
9:15 AM 39.2 °F 29.0 °F 19.4 °F 45% 29.61 in 10.0 mi South 21.9 mph - N/A   Clear
9:35 AM 39.2 °F 29.6 °F 19.4 °F 45% 29.60 in 10.0 mi South 19.6 mph 32.2 mph N/A   Clear
9:55 AM 41.0 °F 31.6 °F 19.4 °F 42% 29.59 in 10.0 mi South 20.7 mph 27.6 mph N/A   Clear
10:15 AM 41.0 °F 31.6 °F 21.2 °F 45% 29.58 in 10.0 mi South 20.7 mph 25.3 mph N/A   Clear
10:35 AM 41.0 °F 31.6 °F 23.0 °F 49% 29.58 in 10.0 mi South 20.7 mph 26.5 mph N/A   Clear
10:55 AM 41.0 °F 32.5 °F 23.0 °F 49% 29.57 in 10.0 mi South 17.3 mph 26.5 mph N/A   Clear
11:15 AM 44.6 °F 37.4 °F 24.8 °F 46% 29.56 in 10.0 mi South 16.1 mph - N/A   Clear
11:35 AM 46.4 °F 39.2 °F 26.6 °F 46% 29.55 in 10.0 mi South 18.4 mph 26.5 mph N/A   Clear
11:55 AM 48.2 °F - 28.4 °F 46% 29.54 in 10.0 mi South 20.7 mph 27.6 mph N/A   Clear
12:15 PM 48.2 °F - 28.4 °F 46% 29.53 in 10.0 mi South 17.3 mph - N/A   Clear
12:35 PM 50.0 °F - 28.4 °F 43% 29.52 in 10.0 mi South 18.4 mph 25.3 mph N/A   Clear
12:55 PM 51.8 °F - 30.2 °F 44% 29.50 in 10.0 mi South 23.0 mph 27.6 mph N/A   Clear
1:15 PM 53.6 °F - 32.0 °F 44% 29.50 in 10.0 mi South 20.7 mph 25.3 mph N/A   Clear
1:35 PM 55.4 °F - 32.0 °F 41% 29.49 in 10.0 mi South 18.4 mph 21.9 mph N/A   Clear
1:55 PM 57.2 °F - 33.8 °F 41% 29.48 in 10.0 mi South 17.3 mph 21.9 mph N/A   Clear
2:15 PM 59.0 °F - 32.0 °F 36% 29.46 in 10.0 mi South 17.3 mph 24.2 mph N/A   Clear
2:35 PM 59.0 °F - 33.8 °F 39% 29.45 in 10.0 mi South 16.1 mph - N/A   Clear
3:15 PM 62.6 °F - 33.8 °F 34% 29.42 in 10.0 mi South 21.9 mph 31.1 mph N/A   Clear
3:35 PM 62.6 °F - 32.0 °F 32% 29.42 in 10.0 mi South 17.3 mph 25.3 mph N/A   Clear
3:55 PM 62.6 °F - 33.8 °F 34% 29.41 in 10.0 mi SSE 20.7 mph 26.5 mph N/A   Clear
4:15 PM 62.6 °F - 33.8 °F 34% 29.40 in 10.0 mi SSE 16.1 mph 23.0 mph N/A   Clear
4:35 PM 62.6 °F - 33.8 °F 34% 29.39 in 10.0 mi SSE 21.9 mph 27.6 mph N/A   Clear
4:55 PM 62.6 °F - 33.8 °F 34% 29.39 in 10.0 mi South 17.3 mph 26.5 mph N/A   Clear
5:15 PM 62.6 °F - 35.6 °F 37% 29.39 in 10.0 mi South 16.1 mph 23.0 mph N/A   Clear
5:35 PM 62.6 °F - 35.6 °F 37% 29.38 in 10.0 mi SSE 16.1 mph 21.9 mph N/A   Clear
5:55 PM 62.6 °F - 37.4 °F 39% 29.38 in 10.0 mi SSE 17.3 mph 23.0 mph N/A   Clear
6:15 PM 60.8 °F - 35.6 °F 39% 29.37 in 10.0 mi SSE 17.3 mph - N/A   Clear
6:35 PM 59.0 °F - 37.4 °F 45% 29.37 in 10.0 mi SSE 15.0 mph - N/A   Clear
6:55 PM 59.0 °F - 37.4 °F 45% 29.37 in 10.0 mi SSE 15.0 mph - N/A   Clear
7:15 PM 57.2 °F - 37.4 °F 48% 29.36 in 10.0 mi SSE 13.8 mph - N/A   Clear
7:35 PM 53.6 °F - 37.4 °F 54% 29.36 in 10.0 mi SSE 12.7 mph - N/A   Clear
7:55 PM 51.8 °F - 37.4 °F 58% 29.36 in 10.0 mi SSE 11.5 mph - N/A   Clear
8:15 PM 50.0 °F - 35.6 °F 58% 29.36 in 10.0 mi SSE 13.8 mph - N/A   Clear
8:35 PM 51.8 °F - 35.6 °F 54% 29.35 in 10.0 mi SSE 15.0 mph - N/A   Clear
8:55 PM 51.8 °F - 33.8 °F 50% 29.35 in 10.0 mi SSE 17.3 mph - N/A   Clear
9:15 PM 50.0 °F - 33.8 °F 54% 29.35 in 10.0 mi South 16.1 mph 20.7 mph N/A   Clear
9:35 PM 50.0 °F - 33.8 °F 54% 29.35 in 10.0 mi South 13.8 mph - N/A   Clear
9:55 PM 48.2 °F - 33.8 °F 58% 29.35 in 10.0 mi South 10.4 mph - N/A   Clear
10:15 PM 46.4 °F 41.5 °F 33.8 °F 62% 29.35 in 10.0 mi South 10.4 mph - N/A   Clear
10:35 PM 44.6 °F 39.2 °F 33.8 °F 66% 29.35 in 10.0 mi South 10.4 mph - N/A   Clear
10:55 PM 42.8 °F 36.6 °F 32.0 °F 66% 29.36 in 10.0 mi SSW 11.5 mph - N/A   Clear
11:15 PM 42.8 °F 37.0 °F 32.0 °F 66% 29.37 in 10.0 mi SSW 10.4 mph - N/A   Clear
11:35 PM 51.8 °F - 32.0 °F 47% 29.43 in 10.0 mi West 35.7 mph 41.4 mph N/A   Clear
11:55 PM 48.2 °F - 28.4 °F 46% 29.48 in 8.0 mi WNW 38.0 mph 50.6 mph N/A   Clear